Weather History for Ontario, OR

Change the Weather History Date:

Wednesday, June 18, 2014

  Actual Average Record
Temperature  
Mean Temperature 58 °F 68 °F  
Max Temperature 66 °F 84 °F 106 °F (1974)
Min Temperature 49 °F 53 °F 31 °F (1973)
Degree Days  
Heating Degree Days 7 1  
Month to date heating degree days 28 41  
Since 1 June heating degree days 28 41  
Since 1 July heating degree days 5908 5991  
Cooling Degree Days 0 5  
Month to date cooling degree days 72 62  
Year to date cooling degree days 120 98  
Since 1 June cooling degree days 72 62  
Growing Degree Days 6 (Base 50)    
Moisture  
Dew Point 47 °F    
Average Humidity 74    
Maximum Humidity 96    
Minimum Humidity 52    
Precipitation  
Precipitation 0.16 in 0.02 in 0.48 in (1975)
Month to date precipitation 0.24 0.50  
Year to date precipitation 4.97 5.57  
Sea Level Pressure  
Sea Level Pressure 30.06 in    
Wind  
Wind Speed 2 mph (WNW)    
Max Wind Speed 7 mph    
Max Gust Speed 9 mph    
Visibility 10 miles    
Events Rain    
T = Trace of Precipitation, MM = Missing Value Source: NWS Daily Summary

Daily Weather History Graph

Daily Weather History Graph

Search for Another Location

Airport:

Trip Planner

Search our weather history database for the weather conditions in past years. The results will help you decide how hot, cold, wet, or windy it might be!

Date:

Astronomy

Jun. 18, 2014 Rise Set
Actual Time 6:04 AM MDT 9:33 PM MDT
Civil Twilight 5:28 AM MDT 10:10 PM MDT
Nautical Twilight 4:40 AM MDT 10:58 PM MDT
Astronomical Twilight 3:39 AM MDT 11:59 PM MDT
Moon 12:54 AM MDT (6/18) 12:45 PM MDT (6/18)
Length of Visible Light 16h 41m
Length of Day
15h 29m
Waning Gibbous, 62% of the Moon is Illuminated
Jun 18
Waning Gibbous
Jun 19
Last Quarter
Jun 27
New
Jul 5
First Quarter
Jul 12
Full

Hourly Weather History & Observations

Time (MDT) Temp. Dew Point Humidity Pressure Visibility Wind Dir Wind Speed Gust Speed Precip Events Conditions
12:53 AM 50.0 °F 46.0 °F 86% 30.03 in 10.0 mi Calm Calm - 0.01 in Rain Light Rain
1:53 AM 50.0 °F 46.0 °F 86% 30.03 in 10.0 mi Calm Calm - 0.00 in Rain Light Rain
2:53 AM 50.0 °F 46.9 °F 89% 30.01 in 10.0 mi Calm Calm - 0.00 in   Overcast
3:53 AM 50.0 °F 46.9 °F 89% 30.02 in 10.0 mi Calm Calm - N/A   Overcast
4:53 AM 50.0 °F 46.9 °F 89% 30.02 in 10.0 mi WNW 3.5 mph - 0.00 in Rain Light Rain
5:53 AM 50.0 °F 46.0 °F 86% 30.03 in 10.0 mi Calm Calm - 0.03 in Rain Light Rain
6:53 AM 48.9 °F 46.0 °F 90% 30.04 in 10.0 mi Calm Calm - 0.01 in Rain Light Rain
7:53 AM 48.9 °F 46.0 °F 90% 30.05 in 7.0 mi NNW 3.5 mph - 0.03 in Rain Light Rain
8:35 AM 48.9 °F 46.0 °F 90% 30.05 in 7.0 mi NW 3.5 mph - 0.02 in Rain Light Rain
8:53 AM 48.9 °F 46.0 °F 90% 30.06 in 9.0 mi NW 3.5 mph - 0.04 in Rain Light Rain
9:19 AM 50.0 °F 46.0 °F 86% 30.06 in 10.0 mi Calm Calm - 0.00 in Rain Light Rain
9:41 AM 50.0 °F 45.0 °F 83% 30.07 in 10.0 mi North 3.5 mph - 0.01 in Rain Light Rain
9:53 AM 50.0 °F 46.0 °F 86% 30.08 in 10.0 mi NNW 3.5 mph - 0.01 in Rain Light Rain
10:53 AM 51.1 °F 46.0 °F 83% 30.09 in 10.0 mi Calm Calm - 0.03 in Rain Light Rain
11:53 AM 52.0 °F 46.9 °F 83% 30.10 in 10.0 mi Calm Calm - 0.01 in Rain Light Rain
12:53 PM 54.0 °F 48.0 °F 80% 30.10 in 10.0 mi Variable 3.5 mph - 0.00 in Rain Light Rain
1:14 PM 55.0 °F 46.9 °F 74% 30.09 in 10.0 mi Calm Calm - 0.00 in   Overcast
1:30 PM 55.9 °F 46.9 °F 72% 30.09 in 10.0 mi Calm Calm - 0.00 in   Overcast
1:46 PM 55.9 °F 48.0 °F 75% 30.09 in 10.0 mi Variable 3.5 mph - 0.00 in   Overcast
1:53 PM 55.9 °F 48.0 °F 75% 30.09 in 10.0 mi Calm Calm - 0.00 in   Overcast
2:53 PM 61.0 °F 48.0 °F 62% 30.07 in 10.0 mi Calm Calm - N/A   Overcast
3:53 PM 60.1 °F 45.0 °F 57% 30.07 in 10.0 mi Calm Calm - N/A   Overcast
4:53 PM 61.0 °F 46.0 °F 58% 30.06 in 10.0 mi Calm Calm - N/A   Overcast
5:53 PM 63.0 °F 46.9 °F 56% 30.05 in 10.0 mi South 3.5 mph - N/A   Scattered Clouds
6:53 PM 64.0 °F 46.0 °F 52% 30.05 in 10.0 mi Calm Calm - N/A   Mostly Cloudy
7:53 PM 64.0 °F 46.9 °F 54% 30.04 in 10.0 mi South 5.8 mph - N/A   Partly Cloudy
8:53 PM 63.0 °F 48.0 °F 58% 30.05 in 10.0 mi Calm Calm - N/A   Clear
9:53 PM 57.9 °F 50.0 °F 75% 30.05 in 10.0 mi SW 3.5 mph - N/A   Clear
10:53 PM 55.0 °F 50.0 °F 83% 30.06 in 10.0 mi WSW 3.5 mph - N/A   Clear
11:53 PM 52.0 °F 50.0 °F 93% 30.07 in 10.0 mi WNW 3.5 mph - N/A   Clear